Regional Weather Roundup
Issued by NWS

Home | Current Version | Previous Version | Graphics & Text | Print | Product List | Glossary On
Versions: 1 2 3 4 5 6 7 8 9 10 11 12 13 14 15 16 17 18 19 20 21 22 23 24 25 26 27 28 29 30 31 32 33 34 35 36 37 38 39 40 41 42 43 44 45 46 47 48 49 50
000
ASUS45 KCYS 291310
RWRWY

WYOMING REGIONAL WEATHER ROUNDUP
NATIONAL WEATHER SERVICE CHEYENNE WY
700 AM MDT WED MAR 29 2017

NOTE:  "FAIR" INDICATES FEW OR NO CLOUDS BELOW 12,000 FEET
WITH NO SIGNIFICANT WEATHER AND/OR OBSTRUCTIONS TO VISIBILITY.

WYZ001-291400-
YELLOWSTONE NATIONAL PARK

CITY           SKY/WX    TMP DP  RH WIND       PRES   REMARKS
LK YELLOWSTONE   N/A     25  22  88 CALM      30.20S
W YELLOWSTONE  NOT AVBL

$$
WYZ002>013-054>058-071-098>099-291400-
NORTHERN WYOMING

CITY           SKY/WX    TMP DP  RH WIND       PRES   REMARKS
JACKSON        CLEAR     21  19  93 N6        30.21F WCI  14
CODY           FAIR      41  24  51 SW12      30.10F
GREYBULL       FAIR      32  30  92 SE3       30.13R
WORLAND        FAIR      29  29 100 SE3       30.13R
SHERIDAN       FAIR      29  24  82 CALM      30.09R
BUFFALO        FAIR      35  23  61 W5        30.10S WCI  31
GILLETTE       FAIR      32  29  88 CALM      30.10F
HULETT         CLOUDY    36  36 100 S8        30.12S FOG     WCI  29
NEWCASTLE      CLOUDY    37  37 100 CALM      30.13F FOG

$$
WYZ014>020-022>026-101>103-291400-
CENTRAL WYOMING

CITY           SKY/WX    TMP DP  RH WIND       PRES   REMARKS
BIG PINEY      FAIR      21  17  84 N5        30.18S WCI  15
PINEDALE       FAIR      27  19  74 NW8       30.18R WCI  18
DUBOIS         FAIR      32  19  59 W16       30.15S WCI  21
LANDER         FAIR      30  25  81 E3        30.13R
RIVERTON       FAIR      29  26  89 SW9       30.14R WCI  20
CASPER         FAIR      28  27  96 W8        30.14S WCI  20
DOUGLAS        FAIR      33  32  96 W3        30.14S

$$
WYZ021-027>030-104>119-291400-
SOUTHERN WYOMING

CITY           SKY/WX    TMP DP  RH WIND       PRES   REMARKS
EVANSTON       FAIR      24  20  84 S6        30.21S WCI  17
FORT BRIDGER   FAIR      28  25  86 W13       30.24S WCI  18
ROCK SPRINGS   FAIR      28  21  75 SW14      30.18S WCI  17
DIXON            N/A     24  22  93 CALM      30.21R
RAWLINS        FAIR      23  20  88 NW8       30.17R WCI  14
SARATOGA       PTSUNNY   30  30 100 CALM      30.18R
LARAMIE        CLOUDY    30  28  92 NW10      30.12R WCI  21
CHEYENNE       CLOUDY    35  33  92 N13       30.10R WCI  26
TORRINGTON     CLOUDY    39  38  96 W6        30.11F WCI  35
PINE BLUFFS    CLOUDY    34  34 100 NW7       30.10S WCI  28

$$



USA.gov is the U.S. government's official web portal to all federal, state and local government web resources and services.